Location: Chiroubles
(46.1812°N, 4.6660°E)
Time: 01:40:59
(UTC+00:00)

Cosmos 2239 Rocket - Pass Details

Date: 15 August 2020
Orbit: 955 x 990 km, 82.9° (Epoch: 19 September)

Event Time Altitude Azimuth Distance (km) Brightness Sun altitude
Rises 19:34:15 0° 184° (S) 3,619 7.2 -7.8°
Reaches altitude 10° 19:36:43 10° 184° (S) 2,678 6.6 -8.2°
Maximum altitude 19:42:51 84° 96° (E) 969 4.5 -9.1°
Drops below altitude 10° 19:49:03 10° 10° (N) 2,707 7.1 -10.0°
Sets 19:51:34 0° 10° (N) 3,662 7.8 -10.4°
